Theta_e
337 332 331 329 326 325 326 327 328 325 325 324 321 318 317 314 313 311 310 309 309 308
333 332 330 329 327 326 328 328 327 326 324 322 321 318 316 314 313 311 309 308 308 308
333 332 330 327 326 327 328 328 326 326 324 323 320 319 316 314 313 310 308 307 307 306
331 331 329 327 327 327 327 327 327 326 324 322 320 318 315 313 312 310 308 307 307 306
330 328 328 328 327 327 325 327 327 326 323 322 320 317 315 312 311 309 307 307 306 305
328 327 327 327 326 326 326 326 326 326 323 321 320 316 314 314 311 310 308 308 305 305
329 328 327 327 325 325 326 326 326 325 323 321 320 318 315 313 311 308 309 308 306 304
332 331 328 325 325 325 325 326 326 324 323 321 320 318 315 313 309 308 306 306 306 304
333 332 328 326 325 324 324 325 325 323 321 319 319 310 310 311 307 307 305 304 303 303
331 331 328 327 326 324 323 324 323 322 321 319 319 306 307 308 307 306 305 302 302 305
332 330 330 327 326 324 323 322 322 322 320 318 315 304 303 305 307 306 304 303 304 301
333 330 329 326 325 324 323 323 322 321 318 315 306 302 303 306 306 304 303 304 303 300
335 331 329 328 326 326 326 323 321 318 315 308 304 301 302 305 305 303 303 303 303 301
333 332 332 329 328 327 324 320 314 311 310 307 305 304 302 303 305 304 303 304 302 300
Wind_Speed
14 11 11 15 12 11 12 10 10 12 12 10 9 8 7 6 5 7 7 7 4 4
16 16 14 15 13 11 12 10 15 12 14 12 11 11 9 8 8 8 6 7 6 4
15 15 14 14 16 15 12 13 14 14 13 13 12 12 10 8 9 10 7 7 8 5
15 15 14 14 15 15 14 15 14 14 14 15 14 12 10 10 11 12 11 8 9 7
12 13 14 15 16 16 16 16 16 16 16 16 15 14 12 13 12 14 13 11 9 9
15 16 17 16 15 16 16 17 17 18 18 17 16 15 13 14 14 13 13 12 11 11
17 17 15 15 16 17 18 18 19 19 19 18 16 16 15 14 14 12 11 12 12 12
14 15 14 16 17 17 18 17 18 17 16 16 16 13 15 14 15 15 13 11 11 9
11 16 16 16 17 17 16 16 17 17 18 17 13 17 21 19 16 16 15 13 8 8
13 15 16 16 15 15 15 13 15 16 17 17 15 19 21 24 15 16 15 13 10 5
15 15 12 12 16 17 17 18 15 13 15 14 12 22 20 23 17 15 15 16 13 11
13 12 13 15 15 14 19 19 20 20 18 16 13 28 27 22 15 15 16 14 11 11
12 15 17 16 16 17 15 19 14 16 16 20 18 25 27 24 12 14 11 11 11 15
14 14 16 15 12 10 7 8 13 15 15 17 22 22 29 29 17 15 13 13 11 9
Wind_Direction
176 174 173 174 172 181 176 188 177 178 167 170 167 163 152 141 138 131 122 126 118 124
169 169 172 172 173 176 174 178 175 181 163 167 167 168 158 154 147 142 132 136 139 134
173 167 166 165 173 176 178 173 174 172 169 171 170 170 162 161 151 141 140 145 147 144
171 169 165 172 178 178 170 175 175 174 174 174 174 172 164 164 155 147 145 151 150 152
164 164 169 179 181 176 175 175 175 175 180 179 177 172 168 165 163 155 155 159 148 142
175 175 182 181 176 179 174 173 178 178 184 179 177 174 174 168 165 161 156 152 146 143
184 184 183 178 178 180 179 177 180 183 182 178 176 179 175 168 160 149 151 149 152 155
188 180 176 178 180 182 184 180 176 177 181 180 180 178 172 165 152 150 147 146 142 147
211 182 181 184 183 181 183 176 177 180 179 182 188 167 169 159 154 152 144 143 137 148
192 199 190 181 182 183 174 172 187 184 181 183 186 167 160 156 152 146 142 139 133 167
197 195 188 201 190 176 162 173 170 207 191 176 173 154 148 145 142 141 145 143 151 154
203 194 188 198 204 201 174 189 164 182 186 165 150 144 145 136 140 139 142 147 159 165
211 204 200 196 202 199 202 198 177 167 167 147 142 143 137 132 135 136 151 166 171 180
198 207 204 195 192 210 262 246 152 145 144 144 149 152 145 148 147 162 168 177 176 181